This is the latest recevied weather packets stored in our database for station/object N5LSN. If no packets are shown the sender has not sent any weather packets the latest 10 day(s).
| Time | Temp. | Humidity | Pressure | Rain* | Wind** | Luminosity | Snow |
|---|---|---|---|---|---|---|---|
| 1777465444 | 16.11° C | 92% | 1015.8 hPa | 0 mm | - | 51 W/m² | - |
| 1777465143 | 16.67° C | 91% | 1015.8 hPa | 0 mm | - | 42 W/m² | - |
| 1777464838 | 16.67° C | 91% | 1015.8 hPa | 0 mm | - | 35 W/m² | - |
| 1777464534 | 16.67° C | 91% | 1015.6 hPa | 0 mm | - | 30 W/m² | - |
| 1777464230 | 16.67° C | 92% | 1015.5 hPa | 0 mm | - | 23 W/m² | - |
| 1777463930 | 16.67° C | 91% | 1015.4 hPa | 0 mm | - | 20 W/m² | - |
| 1777463626 | 16.67° C | 92% | 1015.3 hPa | 0 mm | - | 15 W/m² | - |
| 1777463321 | 16.67° C | 92% | 1015.1 hPa | 0 mm | - | 14 W/m² | - |
| 1777463018 | 16.67° C | 92% | 1015 hPa | 0 mm | - | 12 W/m² | - |
| 1777462714 | 17.22° C | 94% | 1015 hPa | 0 mm | - | 11 W/m² | - |
| 1777462409 | 17.22° C | 94% | 1014.8 hPa | 0 mm | - | 8 W/m² | - |
| 1777462106 | 17.22° C | 95% | 1014.5 hPa | 0 mm | - | 4 W/m² | - |
| 1777461803 | 17.22° C | 98% | 1014.5 hPa | 0 mm | - | 3 W/m² | - |
| 1777461498 | 17.22° C | 98% | 1014.6 hPa | 0 mm | - | 2 W/m² | - |
| 1777461195 | 17.22° C | 99% | 1014.2 hPa | 0 mm | - | 1 W/m² | - |
| 1777460890 | 17.22° C | 98% | 1014.3 hPa | 0 mm | - | 0 W/m² | - |
| 1777460586 | 17.22° C | 99% | 1014 hPa | 0 mm | - | 0 W/m² | - |
| 1777460281 | 17.22° C | 98% | 1014 hPa | 0 mm | - | 0 W/m² | - |
| 1777459979 | 17.22° C | 99% | 1014 hPa | 0 mm | - | 0 W/m² | - |
| 1777459675 | 17.22° C | 99% | 1013.6 hPa | 0 mm | - | 0 W/m² | - |
| 1777459372 | 17.22° C | 99% | 1013.5 hPa | 0 mm | - | 0 W/m² | - |
| 1777459070 | 17.22° C | 99% | 1013.4 hPa | 0 mm | - | 0 W/m² | - |
| 1777458767 | 17.22° C | 99% | 1013.2 hPa | 0 mm | - | 0 W/m² | - |
| 1777458464 | 17.22° C | 99% | 1013 hPa | 0 mm | - | 0 W/m² | - |
| 1777458161 | 17.22° C | 99% | 1012.9 hPa | 0 mm | - | 0 W/m² | - |
* Rain latest hour (hover to see other rain measurements)
** Current wind speed in m/s (hover to see current wind gust speed)